This demonstration page uses our WeatherBlox Daily Observations layout. Learn more.

Left ArrowRight Arrow

Hourly Observations for August 21, 2021

Temp ( °F °C ) Dew Point ( °F °C ) Humidity (%) Winds ( mph kmh ) Pressure ( in mb ) Visibility ( mi km ) Precip ( " mm )
12:56 am 00:56 Clear 63 17.2 55 12.8 76 76 NW 9 15 29.88 1012 10 16 0.00 0.00
1:56 am 01:56 Clear 63 17.2 53 11.7 70 70 NW 9 15 29.92 1013 10 16 0.00 0.00
2:56 am 02:56 Clear 62 16.7 53 11.7 73 73 N 14 22 29.93 1013 10 16 0.00 0.00
3:56 am 03:56 Clear 60 15.6 53 11.7 78 78 N 12 19 29.94 1014 10 16 0.00 0.00
4:56 am 04:56 Clear 58 14.4 53 11.7 84 84 N 5 7 29.97 1015 10 16 0.00 0.00
5:56 am 05:56 Clear 56 13.3 52 11.1 87 87 NNW 5 7 29.98 1015 10 16 0.00 0.00
6:56 am 06:56 Sunny 56 13.3 51 10.6 84 84 NW 3 6 30.02 1017 10 16 0.00 0.00
7:56 am 07:56 Sunny 57 13.9 52 11.1 83 83 WNW 6 9 30.04 1017 10 16 0.00 0.00
8:56 am 08:56 Sunny 61 16.1 53 11.7 75 75 NNW 10 17 30.06 1018 10 16 0.00 0.00
9:56 am 09:56 Sunny 64 17.8 53 11.7 68 68 NNW 12 19 30.07 1018 10 16 0.00 0.00
10:56 am 10:56 Sunny 67 19.4 53 11.7 61 61 N 13 20 30.07 1018 10 16 0.00 0.00
11:56 am 11:56 Sunny 70 21.1 53 11.7 55 55 N 15 24 30.07 1018 10 16 0.00 0.00
12:56 pm 12:56 Sunny 69 20.6 52 11.1 55 55 N 9 15 30.06 1018 10 16 0.00 0.00
1:56 pm 13:56 Sunny 71 21.7 53 11.7 53 53 N 7 11 30.06 1018 10 16 0.00 0.00
2:56 pm 14:56 Sunny 74 23.3 54 12.2 50 50 VRB 5 7 30.04 1017 10 16 0.00 0.00
3:56 pm 15:56 Sunny 76 24.4 54 12.2 47 47 VRB 5 7 30.03 1017 10 16 0.00 0.00
4:56 pm 16:56 Sunny 75 23.9 52 11.1 45 45 VRB 6 9 30.01 1016 10 16 0.00 0.00
5:56 pm 17:56 Sunny 75 23.9 57 13.9 54 54 ESE 8 13 30.00 1016 9 14 0.00 0.00
6:56 pm 18:56 Sunny 73 22.8 57 13.9 57 57 E 9 15 29.99 1016 10 16 0.00 0.00
7:56 pm 19:56 Sunny 69 20.6 59 15 70 70 E 3 6 29.99 1016 10 16 0.00 0.00
8:56 pm 20:56 Clear with Light Rain 65 18.3 59 15 81 81 SSE 3 6 30.01 1016 10 16 0.00 0.00
9:56 pm 21:56 Mostly Cloudy 65 18.3 59 15 81 81 SE 5 7 30.03 1017 10 16 0.00 0.00
10:56 pm 22:56 Mostly Clear 62 16.7 58 14.4 86 86 SE 8 13 30.03 1017 10 16 0.00 0.00
11:56 pm 23:56 Mostly Cloudy 61 16.1 58 14.4 90 90 SE 7 11 30.04 1017 10 16 0.00 0.00

Powered by AerisWeather